TimeCST,TemperatureF,Dew PointF,Humidity,Sea Level PressureIn,VisibilityMPH,Wind Direction,Wind SpeedMPH,Gust SpeedMPH,PrecipitationIn,Events,Conditions,WindDirDegrees,DateUTC
12:15 AM,51.8,50.0,94,30.27,10.0,Calm,Calm,-,N/A,,Scattered Clouds,0,2013-11-10 06:15:00
12:35 AM,51.8,50.0,94,30.27,10.0,Calm,Calm,-,N/A,,Scattered Clouds,0,2013-11-10 06:35:00
12:55 AM,51.8,50.0,94,30.27,10.0,South,3.5,-,N/A,,Clear,180,2013-11-10 06:55:00
1:15 AM,51.8,50.0,94,30.27,10.0,South,3.5,-,N/A,,Clear,180,2013-11-10 07:15:00
1:35 AM,51.8,50.0,94,30.27,10.0,Calm,Calm,-,N/A,,Clear,0,2013-11-10 07:35:00
1:55 AM,50.0,50.0,100,30.27,10.0,SSE,3.5,-,N/A,,Scattered Clouds,150,2013-11-10 07:55:00
2:15 AM,50.0,50.0,100,30.27,10.0,SSE,3.5,-,N/A,,Overcast,150,2013-11-10 08:15:00
2:35 AM,50.0,50.0,100,30.27,10.0,SE,3.5,-,N/A,,Mostly Cloudy,130,2013-11-10 08:35:00
2:55 AM,50.0,50.0,100,30.29,10.0,ESE,3.5,-,N/A,,Overcast,120,2013-11-10 08:55:00
3:15 AM,51.8,51.8,100,30.29,10.0,Calm,Calm,-,N/A,,Overcast,0,2013-11-10 09:15:00
3:35 AM,51.8,51.8,100,30.28,10.0,ESE,3.5,-,N/A,,Overcast,110,2013-11-10 09:35:00
3:55 AM,51.8,51.8,100,30.29,10.0,ESE,3.5,-,N/A,,Overcast,120,2013-11-10 09:55:00
4:15 AM,51.8,51.8,100,30.29,10.0,ESE,4.6,-,N/A,,Overcast,120,2013-11-10 10:15:00
4:35 AM,53.6,51.8,94,30.29,10.0,ESE,3.5,-,N/A,,Overcast,110,2013-11-10 10:35:00
4:55 AM,53.6,51.8,94,30.30,10.0,ESE,4.6,-,N/A,,Overcast,120,2013-11-10 10:55:00
5:15 AM,53.6,51.8,94,30.30,10.0,ESE,4.6,-,N/A,,Overcast,120,2013-11-10 11:15:00
5:35 AM,53.6,51.8,94,30.30,10.0,ESE,4.6,-,N/A,,Overcast,120,2013-11-10 11:35:00
5:55 AM,51.8,51.8,100,30.31,10.0,ESE,4.6,-,N/A,,Overcast,120,2013-11-10 11:55:00
6:15 AM,51.8,51.8,100,30.31,10.0,SE,3.5,-,N/A,,Overcast,130,2013-11-10 12:15:00
6:35 AM,51.8,51.8,100,30.32,10.0,ESE,4.6,-,N/A,,Overcast,110,2013-11-10 12:35:00
6:55 AM,51.8,51.8,100,30.33,10.0,ESE,4.6,-,N/A,,Overcast,120,2013-11-10 12:55:00
7:15 AM,53.6,51.8,94,30.33,10.0,ESE,4.6,-,N/A,,Overcast,110,2013-11-10 13:15:00
7:35 AM,53.6,51.8,94,30.34,10.0,ESE,4.6,-,N/A,,Overcast,120,2013-11-10 13:35:00
7:55 AM,53.6,51.8,94,30.35,10.0,ESE,4.6,-,N/A,,Overcast,110,2013-11-10 13:55:00
8:15 AM,53.6,51.8,94,30.36,10.0,ESE,3.5,-,N/A,,Overcast,120,2013-11-10 14:15:00
8:35 AM,53.6,51.8,94,30.36,10.0,ESE,4.6,-,N/A,,Overcast,120,2013-11-10 14:35:00
8:55 AM,55.4,51.8,88,30.37,10.0,ESE,5.8,-,N/A,,Overcast,120,2013-11-10 14:55:00
9:15 AM,55.4,53.6,94,30.37,10.0,ESE,6.9,-,N/A,,Overcast,120,2013-11-10 15:15:00
9:35 AM,55.4,53.6,94,30.37,10.0,SE,5.8,-,N/A,,Overcast,130,2013-11-10 15:35:00
9:55 AM,57.2,53.6,88,30.37,10.0,SSE,6.9,-,N/A,,Overcast,160,2013-11-10 15:55:00
10:15 AM,59.0,53.6,82,30.37,10.0,SSW,5.8,-,N/A,,Overcast,200,2013-11-10 16:15:00
10:35 AM,59.0,51.8,77,30.37,10.0,South,5.8,-,N/A,,Overcast,170,2013-11-10 16:35:00
10:55 AM,59.0,53.6,82,30.37,10.0,South,4.6,-,N/A,,Overcast,180,2013-11-10 16:55:00
11:15 AM,59.0,53.6,82,30.37,10.0,Calm,Calm,-,N/A,,Overcast,0,2013-11-10 17:15:00
11:35 AM,60.8,51.8,72,30.36,10.0,SSE,3.5,-,N/A,,Overcast,160,2013-11-10 17:35:00
11:55 AM,60.8,51.8,72,30.35,10.0,SSE,4.6,-,N/A,,Overcast,150,2013-11-10 17:55:00
12:15 PM,60.8,51.8,72,30.34,10.0,South,3.5,-,N/A,,Overcast,180,2013-11-10 18:15:00
12:35 PM,60.8,51.8,72,30.33,10.0,South,3.5,-,N/A,,Overcast,190,2013-11-10 18:35:00
12:55 PM,62.6,51.8,68,30.32,10.0,Calm,Calm,-,N/A,,Overcast,0,2013-11-10 18:55:00
1:15 PM,62.6,51.8,68,30.31,10.0,SE,3.5,-,N/A,,Overcast,140,2013-11-10 19:15:00
1:35 PM,62.6,51.8,68,30.31,10.0,SE,4.6,-,N/A,,Overcast,130,2013-11-10 19:35:00
1:55 PM,62.6,51.8,68,30.30,10.0,SE,4.6,-,N/A,,Overcast,130,2013-11-10 19:55:00
2:15 PM,62.6,51.8,68,30.30,10.0,South,5.8,-,N/A,,Overcast,170,2013-11-10 20:15:00
2:35 PM,62.6,51.8,68,30.29,10.0,SSE,4.6,-,N/A,,Overcast,150,2013-11-10 20:35:00
2:55 PM,62.6,51.8,68,30.29,10.0,SSW,5.8,-,N/A,,Overcast,200,2013-11-10 20:55:00
3:15 PM,62.6,51.8,68,30.29,10.0,South,3.5,-,N/A,,Overcast,180,2013-11-10 21:15:00
3:35 PM,62.6,51.8,68,30.28,10.0,South,3.5,-,N/A,,Overcast,190,2013-11-10 21:35:00
3:55 PM,62.6,51.8,68,30.28,10.0,Calm,Calm,-,N/A,,Overcast,0,2013-11-10 21:55:00
4:15 PM,62.6,51.8,68,30.28,10.0,Calm,Calm,-,N/A,,Overcast,0,2013-11-10 22:15:00
4:35 PM,62.6,51.8,68,30.28,10.0,Calm,Calm,-,N/A,,Overcast,0,2013-11-10 22:35:00
4:55 PM,62.6,51.8,68,30.27,10.0,Calm,Calm,-,N/A,,Overcast,0,2013-11-10 22:55:00
5:15 PM,62.6,51.8,68,30.27,10.0,Calm,Calm,-,N/A,,Mostly Cloudy,0,2013-11-10 23:15:00
5:35 PM,60.8,51.8,72,30.27,10.0,Calm,Calm,-,N/A,,Overcast,0,2013-11-10 23:35:00
5:55 PM,60.8,51.8,72,30.27,10.0,Calm,Calm,-,N/A,,Mostly Cloudy,0,2013-11-10 23:55:00
6:15 PM,57.2,51.8,82,30.27,10.0,Calm,Calm,-,N/A,,Scattered Clouds,0,2013-11-11 00:15:00
6:35 PM,55.4,51.8,88,30.27,10.0,Calm,Calm,-,N/A,,Clear,0,2013-11-11 00:35:00
6:55 PM,53.6,51.8,94,30.27,10.0,SE,3.5,-,N/A,,Clear,130,2013-11-11 00:55:00
7:15 PM,53.6,51.8,94,30.27,10.0,ESE,3.5,-,N/A,,Clear,120,2013-11-11 01:15:00
7:35 PM,53.6,50.0,88,30.27,10.0,SE,4.6,-,N/A,,Clear,130,2013-11-11 01:35:00
7:55 PM,55.4,51.8,88,30.27,10.0,SE,4.6,-,N/A,,Clear,130,2013-11-11 01:55:00
8:15 PM,55.4,51.8,88,30.27,10.0,SE,5.8,-,N/A,,Clear,140,2013-11-11 02:15:00
8:35 PM,55.4,51.8,88,30.27,10.0,SE,5.8,-,N/A,,Clear,140,2013-11-11 02:35:00
8:55 PM,55.4,51.8,88,30.27,10.0,SE,5.8,-,N/A,,Clear,140,2013-11-11 02:55:00
9:15 PM,53.6,51.8,94,30.27,10.0,SE,4.6,-,N/A,,Clear,140,2013-11-11 03:15:00
9:35 PM,53.6,50.0,88,30.27,10.0,SSE,3.5,-,N/A,,Clear,150,2013-11-11 03:35:00
9:55 PM,53.6,50.0,88,30.27,10.0,South,3.5,-,N/A,,Clear,170,2013-11-11 03:55:00
10:15 PM,53.6,48.2,82,30.27,10.0,South,4.6,-,N/A,,Clear,170,2013-11-11 04:15:00
10:35 PM,53.6,46.4,77,30.27,10.0,SSW,5.8,-,N/A,,Clear,200,2013-11-11 04:35:00
10:55 PM,53.6,48.2,82,30.27,10.0,SSW,4.6,-,N/A,,Mostly Cloudy,200,2013-11-11 04:55:00
11:15 PM,53.6,48.2,82,30.27,10.0,South,3.5,-,N/A,,Overcast,170,2013-11-11 05:15:00
11:35 PM,53.6,48.2,82,30.26,10.0,SSW,4.6,-,N/A,,Overcast,210,2013-11-11 05:35:00
11:55 PM,53.6,48.2,82,30.26,10.0,South,3.5,-,N/A,,Overcast,190,2013-11-11 05:55:00